Location: Ferchesar
(52.6477°N, 12.4298°E)
Time: 09:46:53
(UTC+01:00)

Vanguard 3 - Pass Details

Date: 12 December 2021
Orbit: 508 x 3260 km, 33.3° (Epoch: 24 January)

Event Time Altitude Azimuth Distance (km) Brightness Sun altitude
Rises 06:19:53 0° 268° (W) 7,115 - -15.8°
Exits shadow 06:24:54 - 260° (W) 6,284 11.1 -15.1°
Reaches altitude 10° 06:25:30 10° 259° (W) 6,190 11.1 -15.0°
Maximum altitude 06:40:46 30° 209° (SSW) 4,469 10.8 -12.9°
Drops below altitude 10° 06:53:30 10° 157° (SSE) 5,118 11.9 -11.1°
Sets 06:57:37 0° 147° (SSE) 5,757 12.6 -10.5°
